Jesus Hurtado

Scout - Leones
2 Jul 2028
Sonntag
Verarbeitung

Persönlichkeit

Anpassungsfähigkeit (12) Ehrgeiz (20) Kontroverse (5) Loyalität (3) Druck (11) Professionalität (2) Fairness (10) Temperament (15)

Profil

Trainerstil Demokratisch
Lizenz Kontinentale C
Entschlossenheit 10
Menschenführung 5
Motivation 9
Disziplin 10
Arbeitszufriedenheit
100%
Ermüdung
0%
Rolle Scout
Gehalt 56.5K p/W
Vertrag 14.03.2029

Leistung

Verhalten Gut
Trainingseffektivität
21%
Spielerentwicklung
50%
Verletzungsprävention
45%
Taktische Umsetzung
35%

Letzte Ereignisse

Nahm an einer Scouting-Besprechung teil jetzt
Nahm an einer Scouting-Besprechung teil 7T her
Empfahl ein Transferziel 7T her
Empfahl ein Transferziel 7T her
Geburtstag 7T her
Empfahl ein Transferziel 14T her
Empfahl ein Transferziel 14T her
Legte dem Vorstand ein Dossier vor 14T her

Aktuell beobachtet

122
Spieler Verein Status Fähigkeit Vertrauen Beobachtet Zuletzt beobachtet Letzte Stimme
Andrés Murillo Barranquilla Bericht bereit 79 / 90 65% 1 06.06.2028 -
Yulián Montaño Depor Aktiv 70 / 87 65% 1 21.06.2027 Befürworten
Darwin Torres Barranquilla Aktiv 78 / 86 65% 1 07.12.2026 Befürworten
Daniel Amador Chiapas Aktiv 107 / 94 40% 1 29.11.2026 -
Antonio Salado Ospitaletto Aktiv 96 / 81 40% 1 29.11.2026 -
Matías Contrera Hrvatski Dragovoljac Aktiv 91 / 108 40% 6 28.11.2026 -
Daniel Vašulín Zbrojovka Brno Aktiv 102 / 116 40% 1 28.11.2026 -
José Alvarado Leon Aktiv 102 / 119 40% 1 28.11.2026 -
Misael Sosa Godoy Cruz Aktiv 111 / 113 40% 2 27.11.2026 -
Carlos Gutiérrez Dorados Aktiv 113 / 108 40% 2 27.11.2026 -
Santiago Apa All Boys Aktiv 112 / 102 40% 1 26.11.2026 -
Lautaro Gordillo Colegiales Aktiv 117 / 105 40% 1 26.11.2026 -
Tomás González Estudiantes Aktiv 108 / 103 40% 1 24.11.2026 -
Maico Quiroz Güemes Aktiv 120 / 114 40% 1 24.11.2026 -
Gonzalo Valenzuela Radnicki Nis Aktiv 109 / 97 40% 1 24.11.2026 -
Pedro Ramírez Deportivo Riestra Aktiv 112 / 120 40% 3 21.11.2026 -
Ariel Castellano Alvarado Aktiv 103 / 100 40% 1 21.11.2026 -
Rômulo Tigres Aktiv 114 / 113 40% 1 21.11.2026 -
Mariano Bracamonte Deportivo Riestra Aktiv 117 / 113 40% 2 20.11.2026 -
Alejo Dramisino Atlanta Aktiv 119 / 118 40% 1 20.11.2026 -
Andi Vidal Irkutsk Aktiv 75 / 85 40% 1 20.11.2026 -
Favio Cabral Mitre Aktiv 112 / 126 40% 2 16.11.2026 -
David Mazuch FK Senica Aktiv 112 / 103 40% 1 16.11.2026 -
Blas Armoa Gimnasia y Esgrima Aktiv 116 / 126 40% 1 14.11.2026 -
Maximiliano Meléndez Chacarita Juniors Aktiv 112 / 120 40% 2 12.11.2026 -
Santiago Martínez Godoy Cruz Aktiv 119 / 107 40% 1 12.11.2026 -
Agustín Paz Progreso Aktiv 121 / 105 40% 1 12.11.2026 -
Gabriel Monjes Hamrun Spartans Aktiv 83 / 96 40% 1 12.11.2026 -
Bruno Larregui Juventud Aktiv 126 / 117 40% 3 11.11.2026 -
Alex Vigo Independiente Rivadavia Aktiv 115 / 118 40% 1 09.11.2026 -
Gianluca Pugliese Güemes Aktiv 114 / 118 40% 1 09.11.2026 -
Renzo Reynaga Patronato Aktiv 117 / 106 40% 1 09.11.2026 -
Alexander Díaz Deportivo Riestra Aktiv 118 / 119 40% 4 07.11.2026 -
Matías Viguet Maipú Aktiv 119 / 120 40% 2 07.11.2026 -
Elías Pereyra Barracas Central Aktiv 110 / 118 40% 1 07.11.2026 -
Alejo Montero Newell's Old Boys Aktiv 127 / 116 40% 1 06.11.2026 -
Luis Olivera Defensores Unidos Aktiv 118 / 104 40% 1 06.11.2026 -
Jorge Obregón Deportivo Pasto Aktiv 120 / 122 40% 1 05.11.2026 -
Federico Versaci Talleres Aktiv 113 / 108 40% 2 03.11.2026 -
Rodrigo López Pumas UNAM Aktiv 102 / 116 40% 1 03.11.2026 -
Enzo Silcan Almagro Aktiv 108 / 114 40% 3 02.11.2026 -
Gastón Moreyra Almirante Brown Aktiv 105 / 109 40% 1 02.11.2026 -
Andrés Montaño Cruz Azul Aktiv 114 / 130 40% 1 02.11.2026 -
Nicolás Retamar Ferro Carril Oeste Aktiv 123 / 110 40% 2 01.11.2026 -
Juan Pablo Gallego Fehervar Aktiv 119 / 98 40% 2 31.10.2026 -
Franco Vedoya Central Norte Aktiv 119 / 114 40% 1 30.10.2026 -
Martín Campos Ferro Carril Oeste Aktiv 116 / 110 40% 1 30.10.2026 -
Esteban Obregón Montevideo City Torque Aktiv 121 / 121 40% 3 29.10.2026 -
Marcus Vinicius Deportivo Pereira Aktiv 117 / 103 40% 1 28.10.2026 -
Matías Laurino Gornik Leczna Aktiv 82 / 101 40% 1 27.10.2026 -
Leandro Suhr Boston River Aktiv 120 / 113 40% 1 27.10.2026 -
Facundo Lencioni Gimnasia y Esgrima Aktiv 122 / 126 40% 1 25.10.2026 -
Jonathan Pérez Guadalajara Aktiv 124 / 111 40% 1 25.10.2026 -
Gastón Verón Argentinos Juniors Aktiv 121 / 111 40% 1 23.10.2026 -
Alejandro Piedrahita Deportivo Pereira Aktiv 129 / 132 40% 2 21.10.2026 -
Luca Franco Arsenal Aktiv 102 / 113 40% 1 19.10.2026 -
Gaspar Duarte Rosario Central Aktiv 115 / 119 40% 1 19.10.2026 -
Brahian Cuello Unión de Santa Fe Aktiv 109 / 119 40% 1 18.10.2026 -
Robertino Giacomini Panserraikos Aktiv 105 / 108 40% 2 17.10.2026 -
Camilo Machado Madryn Aktiv 104 / 105 40% 1 17.10.2026 -
Julián Brea Cobresal Aktiv 97 / 112 40% 5 15.10.2026 -
Fernando Mimbacas Juventud Aktiv 109 / 102 40% 1 15.10.2026 -
Federico Bisanz Atlanta Aktiv 111 / 109 40% 1 15.10.2026 -
Ezequiel Cañete Huachipato Aktiv 110 / 122 40% 4 14.10.2026 -
Ulises Sánchez Gimnasia y Esgrima Aktiv 130 / 124 40% 1 14.10.2026 -
Agustín Gallo Tristán Suárez Aktiv 112 / 116 40% 1 10.10.2026 -
Alejo Cruz Juventud Aktiv 111 / 120 40% 1 08.10.2026 -
Emerson Batalla Atletico Bucaramanga Aktiv 133 / 113 40% 1 08.10.2026 -
Luciano Cosentino Wanderers Aktiv 125 / 127 40% 3 07.10.2026 -
Julian Herrera Cortulua Aktiv 120 / 120 40% 4 07.10.2026 -
Maximiliano Rueda Patronato Aktiv 118 / 113 40% 2 05.10.2026 -
Ramón González Almirante Brown Aktiv 121 / 115 40% 1 05.10.2026 -
Lisandro Cabrera Maipú Aktiv 123 / 119 40% 1 03.10.2026 -
Ramiro Ruiz Rodríguez Atlético Tucumán Aktiv 115 / 124 40% 3 02.10.2026 -
Iñaki Larthirigoyen San Telmo Aktiv 107 / 123 40% 1 02.10.2026 -
Vicente Poggi Godoy Cruz Aktiv 128 / 117 40% 1 27.09.2026 -
Agustín Amado Boston River Aktiv 107 / 117 40% 1 25.09.2026 -
Brian Calderara Chacarita Juniors Aktiv 107 / 114 40% 1 25.09.2026 -
César Magallan Estudiantes de Merida Aktiv 105 / 107 40% 2 21.09.2026 -
Erik de los Santos Racing Aktiv 118 / 107 40% 1 21.09.2026 -
Agustín Maidana San Marcos de Arica Aktiv 112 / 114 40% 2 20.09.2026 -
Milton Valenzuela Atlas Aktiv 125 / 116 40% 1 20.09.2026 -
Alexis Gutiérrez Club America Aktiv 130 / 115 40% 2 19.09.2026 -
Jonás Luna Wanderers Aktiv 116 / 113 40% 1 19.09.2026 -
Nicolás Latorre Miramar Misiones Aktiv 102 / 114 40% 1 17.09.2026 -
Alan García Wanderers Aktiv 119 / 118 40% 1 17.09.2026 -
Pablo Aránguiz Union Espanola Aktiv 112 / 105 40% 1 16.09.2026 -
Christian Larotonda Caracas Aktiv 121 / 110 40% 1 16.09.2026 -
José Rivera Universitario Aktiv 116 / 113 40% 1 15.09.2026 -
Diego Sánchez Progreso Aktiv 97 / 95 40% 1 15.09.2026 -
Yerko Leiva Union La Calera Aktiv 109 / 111 40% 2 14.09.2026 -
Iván Torregrosa Sibenik Aktiv 76 / 75 40% 1 14.09.2026 -
Delvin Alfonzo Deportivo Tachira Aktiv 122 / 105 40% 2 13.09.2026 -
Nestor Romo Veracruz Aktiv 93 / 121 40% 1 13.09.2026 -
José Alberti Wanderers Aktiv 115 / 117 40% 1 10.09.2026 -
Juan Romero Olimpia Aktiv 120 / 107 40% 2 09.09.2026 -
Ekain Orobengoa Real Sociedad Aktiv 101 / 103 40% 1 09.09.2026 -
Iván Maggi Sportivo Luqueno Aktiv 118 / 113 40% 2 07.09.2026 -
Michael Vadulli Audax Italiano Aktiv 105 / 111 40% 1 05.09.2026 -
José Barragán Zamora Aktiv 103 / 90 40% 1 05.09.2026 -
Marco Collao Audax Italiano Aktiv 113 / 107 40% 1 02.09.2026 -
César González Iquique Aktiv 102 / 98 40% 1 29.08.2026 -
Bryan Rivera Estudiantes de Merida Aktiv 108 / 102 40% 1 27.08.2026 -
Lucas González Nacional Aktiv 100 / 98 40% 1 26.08.2026 -
Mauricio Márquez Caracas Aktiv 106 / 102 40% 2 23.08.2026 -
Jeriel De Santis Caracas Aktiv 98 / 102 40% 2 22.08.2026 -
Ricardo Echeverría Santos Laguna Aktiv 117 / 106 40% 1 21.08.2026 -
Alejandro Organista Puebla Aktiv 94 / 98 40% 1 21.08.2026 -
Jáder Maza Aktiv 119 / 119 30% 1 / 1m 19.08.2026 -
Tobías Donsanti OB Aktiv 85 / 112 40% 1 18.08.2026 -
Santiago Toloza O'Higgins Aktiv 118 / 115 40% 1 18.08.2026 -
Bryan Carvallo Cobresal Aktiv 110 / 105 40% 1 18.08.2026 -
Santiago Simón Toluca Aktiv 124 / 126 40% 1 18.08.2026 -
Junior Paredes Trujillanos Aktiv 104 / 110 40% 1 16.08.2026 -
Alan Cervantes Club America Aktiv 114 / 127 40% 1 14.08.2026 -
Luis Iberico Sporting Cristal Aktiv 113 / 119 40% 1 14.08.2026 -
Paolo Reyna Universitario Aktiv 108 / 111 40% 1 10.08.2026 -
Ronaldo Peña Deportivo Lara Aktiv 103 / 101 40% 1 10.08.2026 -
Jorge Murrugarra Universitario Aktiv 112 / 119 40% 1 07.08.2026 -
Diego Crego Independiente Rivadavia Aktiv 119 / 108 40% 1 07.08.2026 -
Cristhián Rivas Estudiantes de Merida Aktiv 111 / 119 40% 1 04.08.2026 -
Brayan Garrido Iquique Aktiv 107 / 104 40% 1 04.08.2026 -